Regional Weather Roundup
Issued by NWS Grand Forks, ND

Home | Current Version | Previous Version | Graphics & Text | Print | Product List | Glossary On
Versions: 1 2 3 4 5 6 7 8 9 10 11 12 13 14 15 16 17 18 19 20 21 22 23 24 25 26 27 28 29 30 31 32 33 34 35 36 37 38 39 40 41 42 43 44 45 46 47 48 49 50
000
ASUS43 KFGF 282310
RWRFGF
PRAIRIE TO PINES  WEATHER ROUNDUP
NATIONAL WEATHER SERVICE EASTERN NORTH DAKOTA/GRAND FORKS ND
600 PM CDT FRI AUG 28 2015

 **SATELLITE DATA USED TO AUGMENT SKY COVER AT AUTOMATED STATIONS**
 *****  WEATHER ACROSS EASTERN NORTH DAKOTA  *****

CITY           SKY/WX    TMP DP  RH WIND       PRES   REMARKS
GRAND FORKS    PTSUNNY   81  68  64 S16G24    29.81S
GRAND FRKS AFB MOSUNNY   83  69  61 MISG      29.81S
GRAND FRKS NWS   N/A     81 N/A N/A S24         N/A
DEVILS LAKE    SUNNY     82  64  54 W7        29.84R
FARGO          SUNNY     82  67  60 S18       29.87S
WAHPETON ARPT  CLEAR     79  61  53 S14       29.92R
$$

 ***** WEATHER ACROSS CENTRAL AND WESTERN NORTH DAKOTA  *****

CITY           SKY/WX    TMP DP  RH WIND       PRES   REMARKS
BISMARCK       SUNNY     89  62  40 SW7       29.87S
MINOT          MOSUNNY   84  60  44 NE3       29.85S
JAMESTOWN      SUNNY     80  70  71 S16       29.87S
MINOT AFB      MOSUNNY   87  57  36 CALM      29.84S
GARRISON         N/A     85  30  13 SW5       29.88R
WILLISTON      PTSUNNY   88  46  23 W9        29.88S HAZE
DICKINSON      PTSUNNY   87  46  24 W9        29.92R
HETTINGER      MOSUNNY   86  50  28 W13       29.96S HAZE
$$

 *****  OTHER AIRPORT OBSERVATIONS IN OUR AREA  *****

CITY           SKY/WX    TMP DP  RH WIND       PRES   REMARKS
WALHALLA       FAIR      82  68  61 MISG      29.81R
GRAFTON AIRPOR FAIR      84  68  58 W12       29.81R
VALLEY CITY AR FAIR      77  72  83 SW17      29.88S
CANDO          NOT AVBL
CAVALIER APRT  FAIR      82  68  61 NW7       29.80R
GWINNER        FAIR      77  70  78 S10       29.92R
SHEYENNE NWR     N/A     79  67  66 SW9       29.95
ROLLA            N/A     81  63  54 NW7       29.88R
 ***** THE ABOVE OBSERVATIONS ARE NON NWS ARE NOT QUALITY
       CONTROLLED AND MAY MIS-REPORT RAIN FOR SNOW...
$$

  *****  WEATHER ACROSS NORTHERN MINNESOTA  *****

CITY           SKY/WX    TMP DP  RH WIND       PRES   REMARKS
FLAG ISLAND    PTSUNNY   72  66  83 SE3       29.82F
WARROAD        PTSUNNY   79  72  78 CALM      29.83F
ROSEAU         PTSUNNY   81  72  74 SW7       29.83S
HALLOCK        MOSUNNY   84  68  58 W7        29.79R
THF RVR FALLS  SUNNY    N/A N/A N/A S12G18    29.85R
BAUDETTE       MOSUNNY   80  66  62 SW8       29.84S
WASKISH        PTSUNNY   79  66  65 SW6       29.87S
CROOKSTON      MOSUNNY   81  66  61 SW20G25   29.85S
STEPHEN NDAWN    N/A     84  70  61 SW9         N/A
GREENBUSH NDAW   N/A     81  70  69 S7          N/A
$$
  *****  WEATHER ACROSS CENTRAL AND WEST MINNESOTA  *****

CITY           SKY/WX    TMP DP  RH WIND       PRES   REMARKS
FOSSTON        SUNNY     79  64  61 S17       29.89S
BEMIDJI        SUNNY     77  65  65 SW10G17   29.90S
PARK RAPIDS    PTSUNNY   79  64  60 S14       29.92S
ELBOW LAKE     FAIR      76  65  69 S14       29.95S
WADENA         MOSUNNY   75  63  64 SW12      29.95R
DETROIT LAKES  SUNNY     77  64  65 SW12      29.93S
MOORHEAD       SUNNY     81  66  61 S10       29.89S
FERGUS FALLS   MOSUNNY   75  64  69 S9        29.92S
MORRIS MN      MOSUNNY   75  64  69 S6        29.96S
STAPLES        SUNNY     75  61  60 S10       29.95R
$$
  *****  WEATHER ELSEWHERE ACROSS MINNESOTA  *****

CITY           SKY/WX    TMP DP  RH WIND       PRES   REMARKS
DULUTH         MOSUNNY   76  63  64 SW15      29.94S
INTRNTL FALLS  PTSUNNY   76  70  82 SW7       29.85F
ELY            PTSUNNY   75  66  73 CALM      29.91S
CLOQUET        SUNNY     75  61  60 SW10      29.95S
WHEATON        SUNNY     73  63  68 S8        29.95S
BRAINERD       SUNNY     77  61  57 SW13      29.95R
HIBBING        MOSUNNY   77  63  61 SW9G20    29.93R
ALEXANDRIA     MOSUNNY   75  63  66 S12       29.98S
SAINT CLOUD    MOSUNNY   75  63  66 S13       29.97S
MINNEAPOLIS    PTSUNNY   70  59  68 SE14      29.99F
$$

  *****  WEATHER ACROSS SOUTH DAKOTA  *****

CITY           SKY/WX    TMP DP  RH WIND       PRES   REMARKS
SIOUX FALLS    PTSUNNY   70  61  73 E12       29.96S
BROOKINGS      MOSUNNY   72  63  73 E7        29.99R
WATERTOWN      MOSUNNY   76  64  66 S9        29.97R
HURON          MOSUNNY   77  65  66 SE7       29.94S
SISSETON         N/A     77  65  66 S13       29.92R
ABERDEEN       SUNNY     77  67  71 S9        29.93S
MITCHELL       SUNNY     76  66  71 VRB6      29.96R
PIERRE         SUNNY     82  66  58 E5        29.93S
MOBRIDGE       SUNNY     83  68  60 S10       29.90S
RAPID CITY     SUNNY     85  58  39 CALM      30.03R
$$

  *****  SOME WEATHER IN NEARBY STATES *****

CITY           SKY/WX    TMP DP  RH WIND       PRES   REMARKS
GLASGOW MT     PTSUNNY   85  40  20 W8        29.90F HAZE
GREAT FALLS MT PTSUNNY   88  32  13 SW12      29.93F HAZE
CHEYENNE WY    SUNNY     80  37  21 NE5       30.25S
SCOTTSBLUFF NE SUNNY     88  41  19 N7        30.10R
OMAHA NE       PTSUNNY   75  66  73 NW10      29.86R
DES MOINES IA  CLOUDY    75  66  73 S10       29.84S
DAVENPORT IA   CLOUDY    70  64  81 SE9       29.98F
CHICAGO IL     CLOUDY    71  61  70 SE6       30.07S
EAU CLAIRE WI  PTSUNNY   67  59  75 S7        30.03R
LA CROSSE WI   RAIN      60  58  92 SE8       30.06R FOG
$$

  *****  SOME NATIONAL WEATHER *****

CITY           SKY/WX    TMP DP  RH WIND       PRES   REMARKS
LA GUARDIA NY  PTCLDY    80  51  36 N8        30.13R
RALEIGH NC     PTCLDY    83  56  39 E7        30.14R
ATLANTA GA     CLOUDY    80  65  59 SE7       30.11S
NEW ORLEANS LA MOSUNNY   88  63  43 E9        29.95R
OKLAHOMA CITY  CLOUDY    85  68  56 S8        29.92F
ALBUQUERQUE NM PTSUNNY   90  44  20 N15G21    30.12F
SALT LAKE CITY MOSUNNY   94  34  12 CALM      30.07F
LOS ANGELES CA MOSUNNY   84  61  45 W14       29.83F
BOISE ID       CLOUDY    89  39  17 NW15      29.93F
SEATTLE WA     CLOUDY    73  56  54 NW5       29.91F
$$

*** WEATHER ACROSS MANITOBA...SASKATCHEWAN AND ONTARIO ***
                ***ONTARIO***

CITY           SKY/WX    TMP DP  RH WIND       PRES   REMARKS
GERALDTON      LGT RAIN  63  61  94 SW6       29.90S FOG
THUNDER BAY    PTSUNNY   64  57  77 NE3       29.89S
SIOUX LOOKOUT  CLOUDY    72  66  83 SW8       29.85
TORONTO        PTSUNNY   70  55  60 S8        30.14S
BIG TROUT LK   MOSUNNY   68  54  60 SW3       29.81R
PICKLE LAKE    LGT RAIN  72  59  64 SW7       29.83R
DRYDEN         SUNNY     73  64  73 SW9       29.85S
KENORA         PTSUNNY   73  66  78 SW7       29.84S
$$
                *** MANITOBA***

CITY           SKY/WX    TMP DP  RH WIND       PRES   REMARKS
BRANDON        PTSUNNY   82  63  51 N6        29.84R
DAUPHIN        SUNNY     82  55  39 SE3       29.82S
ISLAND LAKE    MOSUNNY   73  59  60 SE6       29.77F
PILOT MOUND      N/A     79  63  57 N7          N/A
THE PAS        MOSUNNY   82  54  36 W13G18    29.74S
THOMPSON       PTSUNNY   75  59  57 SW6       29.67F
WINNIPEG       MOSUNNY   82  63  51 N3        29.81R
LYNN LAKE      MOSUNNY   77  43  29 MISG      29.62S
CHURCHILL      CLOUDY    66  52  59 S10       29.66F
GILLAM         MOSUNNY   73  52  46 S13       29.69F
$$
                ***SASKATCHEWAN***

CITY           SKY/WX    TMP DP  RH WIND       PRES   REMARKS
ESTEVAN        CLOUDY    84  57  39 VRB2      29.85F SMOKE
KINDERSLEY     PTSUNNY   81  48  32 SW8       29.80S
LLOYDMINSTER   NOT AVBL
PRINCE ALBERT  PTSUNNY   81  57  44 SW8       29.78F
REGINA         CLOUDY    81  61  50 CALM      29.84S
YORKTON        SUNNY     81  50  34 S3        29.85R
N. BATTLEFORD  SUNNY     79  59  50 S6        29.78F
LA RONGE       NOT AVBL
SASKATOON      CLOUDY    79  61  53 S7        29.81F
SWIFT CURRENT  SUNNY     81  48  32 VRB2      29.86F HAZE
$$
NOTE: THESE ARE AUTOMATED STATIONS WITH LIMITED QUALITY CONTROL
      "FAIR" INDICATES FEW OR NO CLOUDS BELOW 12,000 FEET WITH NO
      SIGNIFICANT WEATHER AND/OR OBSTRUCTIONS TO VISIBILITY.
      SKY/WX - SKY CONDITION AND SIGNIFICANT WEATHER.
      TMP - AIR TEMPERATURE.    DP   - DEWPOINT TEMPERATURE.
      RH  - RELATIVE HUMIDITY.  PRES - PRESSURE.
      HX  - HEAT INDEX.         WCI  - WIND CHILL INDEX.
$



USA.gov is the U.S. government's official web portal to all federal, state and local government web resources and services.